GFSFLT2_prec_cthk_090.txt.gz
RH
25 28 28 35 41 46 49 57 63 70 75 81 85 91 93 91 89 80 79 85 68 63 50 45 42 38 37 38 40 38 37 29
24 26 29 36 40 45 48 53 56 63 74 80 83 86 90 77 74 76 85 84 77 67 51 54 43 43 44 38 37 39 30 30
25 26 31 37 37 45 51 54 58 62 64 69 74 74 72 73 71 71 86 92 90 79 59 56 51 49 38 36 39 36 33 26
24 26 27 31 32 35 43 50 54 59 65 70 72 78 77 75 71 76 89 97 93 73 60 62 51 40 40 43 41 38 36 27
23 25 25 26 27 30 35 39 45 57 64 72 80 79 85 82 78 84 89 99 94 72 68 64 54 42 39 41 46 38 26 24
25 24 26 23 28 29 33 37 39 46 53 61 70 82 88 86 86 91 96 97 91 66 58 54 58 52 52 45 43 31 22 24
28 25 27 23 24 29 32 34 35 40 48 58 71 74 89 90 85 88 92 95 79 58 54 52 65 58 53 49 38 30 27 35
31 28 28 25 24 27 28 33 35 41 47 61 77 89 92 92 93 95 96 95 77 64 58 56 57 52 51 45 44 41 43 47
34 31 29 25 25 27 26 32 33 41 50 71 94 95 95 96 97 98 98 95 75 69 66 54 55 51 45 49 48 48 51 54
36 33 29 28 26 27 27 29 35 41 66 89 96 95 98 99 98 97 97 92 73 68 60 61 62 54 50 50 52 52 54 60
39 35 30 30 29 28 26 31 35 51 78 90 98 98 99 98 97 90 89 83 72 70 59 55 53 52 53 55 61 60 59 61
40 34 31 32 32 30 26 31 38 60 78 93 98 98 98 95 87 82 79 78 70 75 73 72 69 59 65 65 65 68 68 64
43 35 31 32 30 28 24 27 44 62 81 91 98 93 98 93 89 86 88 84 78 80 78 73 74 79 77 74 72 75 74 73
45 41 31 31 29 27 24 27 50 65 78 85 96 96 95 94 91 92 90 78 73 71 71 73 76 79 75 73 72 74 70 72
45 45 35 32 29 25 25 29 55 70 76 82 92 97 96 98 94 95 90 80 74 67 70 76 76 78 75 72 73 73 74 75
44 49 41 34 31 23 23 28 50 64 74 79 82 92 98 98 96 95 96 90 85 73 76 79 75 74 78 75 74 72 76 76
45 51 46 36 33 22 25 29 39 51 61 75 79 84 92 98 98 99 98 95 89 78 74 81 76 73 73 77 78 77 78 75
46 50 49 38 33 22 25 28 36 44 52 62 70 81 86 91 98 98 97 95 89 85 84 80 77 79 80 77 80 82 84 81
47 50 49 40 34 22 24 29 34 39 46 53 56 60 69 76 89 93 95 96 93 87 88 86 86 91 88 87 84 81 78 76
45 51 47 39 35 23 24 29 34 37 42 45 46 47 53 62 72 83 85 92 93 85 88 87 88 88 88 88 88 88 86 85

GFSFLT2_prec_cthk_093.txt.gz
RH
23 23 24 26 30 35 39 44 49 59 62 66 67 79 79 89 89 89 90 92 87 83 75 61 41 41 44 37 34 40 40 36
25 24 25 26 30 33 40 46 50 55 63 68 73 77 79 86 86 81 76 88 91 87 68 63 45 44 44 42 39 39 38 42
27 24 27 30 27 29 35 45 52 57 60 63 67 71 74 79 81 75 70 79 90 89 71 70 52 49 45 44 38 40 35 38
29 26 26 32 28 27 29 37 44 49 52 60 63 71 76 77 76 73 69 81 93 94 85 62 58 50 52 45 39 41 39 31
29 27 27 30 32 27 27 33 38 42 47 50 54 60 68 76 80 77 79 83 94 93 86 67 62 57 50 44 39 39 43 37
30 30 28 26 31 28 27 31 35 37 42 47 51 57 66 74 82 82 81 85 96 93 88 65 61 64 55 40 42 40 35 44
31 31 33 29 28 30 26 30 34 38 39 43 49 55 69 76 79 85 85 91 98 95 76 69 69 54 53 49 45 46 40 36
34 34 36 34 26 28 29 30 35 37 37 42 48 54 69 76 81 91 89 92 98 95 79 70 58 55 58 57 52 39 28 27
36 35 37 37 29 28 29 28 31 32 35 41 49 68 80 90 91 93 94 93 91 97 77 63 59 63 64 56 51 48 33 32
37 36 41 39 33 30 31 30 31 35 34 46 63 86 94 96 98 97 96 96 96 92 74 65 63 70 62 58 53 48 46 45
37 39 41 39 35 32 33 30 31 32 39 54 82 91 98 99 99 97 98 99 94 88 76 66 67 61 59 60 54 52 51 49
36 42 40 39 36 34 34 30 31 35 48 70 87 97 96 99 98 97 99 99 95 88 77 73 61 56 58 59 57 60 59 56
34 40 42 39 36 34 34 28 30 38 59 72 86 96 96 99 99 98 99 99 93 87 77 66 63 62 62 64 66 66 64 65
35 41 43 40 37 34 33 24 29 46 64 79 88 99 98 99 98 98 96 90 86 78 77 70 69 62 63 70 72 71 71 71
35 40 45 45 38 34 33 23 29 49 67 74 88 94 96 97 90 88 85 86 89 82 82 78 77 82 80 80 80 81 74 75
39 41 46 48 42 34 31 21 28 42 62 72 82 88 92 96 93 90 91 90 87 85 84 83 73 71 80 84 82 76 75 74
41 43 48 50 45 35 30 22 29 37 50 59 78 85 92 96 97 92 93 94 88 87 84 81 77 75 77 77 82 76 74 70
41 44 48 52 49 36 30 22 28 36 45 53 62 75 87 93 99 95 95 94 91 87 85 85 82 78 78 78 77 78 77 75
42 44 48 52 50 38 30 23 30 35 42 52 58 64 75 83 92 96 97 95 96 96 92 89 86 82 83 81 80 80 81 78
45 45 48 54 52 41 32 24 30 35 39 45 51 54 57 65 72 82 89 93 92 96 94 87 86 86 81 81 80 84 84 82

GFSFLT2_prec_cthk_099.txt.gz
RH
22 23 22 19 17 19 23 27 34 38 45 54 57 63 62 62 65 75 79 88 87 90 87 94 92 82 66 51 44 47 40 42
24 25 24 21 18 19 21 24 31 36 44 55 59 67 73 77 82 81 85 83 83 84 84 96 90 94 73 47 44 46 51 49
25 26 26 27 24 22 24 25 29 32 37 48 55 65 74 74 76 79 73 78 79 81 81 91 95 94 78 59 48 55 53 53
25 26 28 33 29 26 26 27 29 31 34 41 50 58 71 70 71 75 68 71 77 77 88 95 93 93 82 73 50 61 54 53
29 26 30 34 33 30 30 31 32 32 35 39 45 51 60 66 62 62 61 69 78 79 82 90 96 94 83 70 60 50 59 57
30 25 29 35 36 34 31 31 30 31 34 38 46 45 52 56 59 58 63 74 83 84 87 91 94 96 80 73 63 66 55 50
30 25 27 31 36 37 32 28 26 26 31 35 38 38 45 51 57 62 64 70 83 84 84 89 92 96 87 79 66 55 54 48
30 25 26 30 39 41 34 29 31 26 25 33 35 37 37 45 55 60 62 71 82 82 87 89 94 96 92 76 65 51 51 50
30 26 27 29 35 42 40 34 34 31 26 31 34 37 38 47 56 61 68 77 84 84 87 89 96 97 89 83 58 50 45 46
35 29 25 29 31 36 44 43 33 34 31 33 31 35 37 49 61 70 79 88 91 83 86 92 95 97 90 72 55 50 50 54
36 30 28 28 31 34 39 45 35 31 33 28 29 34 37 49 64 74 82 91 89 86 89 89 98 96 86 63 56 55 55 56
36 33 30 29 31 35 38 42 38 33 33 29 29 33 44 49 70 84 89 93 90 89 91 92 97 94 85 66 67 60 60 55
34 33 30 30 30 33 39 40 42 37 32 30 34 41 59 64 72 87 90 95 93 94 93 96 97 94 86 77 70 62 58 58
30 31 32 29 29 32 41 42 45 43 33 32 35 51 64 73 82 94 97 98 98 97 92 92 94 94 85 81 79 72 66 64
30 32 35 29 30 38 46 47 49 44 35 32 33 49 63 78 87 97 97 98 98 97 94 93 92 94 90 76 77 73 71 70
37 35 35 30 35 40 46 48 49 44 36 30 32 45 55 79 87 98 98 97 98 98 99 98 94 94 91 85 70 65 65 68
37 38 34 30 37 43 50 54 51 45 35 29 32 45 51 68 81 95 99 98 99 99 98 96 94 89 82 72 73 68 71 70
35 39 37 33 37 46 49 56 54 45 33 30 38 45 50 64 78 95 98 99 98 99 96 90 86 86 71 66 75 80 72 78
37 41 40 36 40 46 53 58 57 49 35 32 35 44 51 64 77 91 98 99 98 96 94 94 93 89 82 81 79 79 80 86
37 43 40 38 41 50 57 61 58 53 36 33 35 41 50 58 67 84 96 95 97 98 97 96 95 88 88 92 90 91 91 94

GFSFLT2_prec_cthk_105.txt.gz
RH
17 15 14 15 16 15 14 15 17 21 25 30 37 43 51 62 70 71 73 68 67 70 75 78 80 80 83 88 80 70 65 69
18 17 16 16 17 16 15 15 16 19 23 29 35 45 50 64 70 70 73 74 77 74 77 80 72 77 86 89 88 84 63 60
19 18 18 17 17 18 16 16 17 18 22 27 34 41 48 60 68 72 73 75 75 70 66 68 68 77 86 87 88 83 81 70
18 20 19 18 18 18 18 18 18 19 21 24 31 37 46 57 68 74 76 75 73 70 62 60 68 75 83 85 87 84 82 66
20 20 20 19 19 18 19 21 20 20 22 24 27 32 39 51 62 69 75 76 74 68 63 65 71 75 86 87 87 88 85 78
20 22 21 20 20 20 19 22 23 23 24 25 25 29 34 41 51 58 65 71 72 66 65 68 73 78 84 85 89 89 90 77
21 22 22 22 22 22 21 22 25 25 26 26 27 28 31 35 42 51 56 57 61 63 70 69 73 80 79 84 89 92 90 87
32 27 26 23 22 23 22 22 25 28 26 29 29 28 30 30 34 41 49 52 53 59 71 70 75 84 82 84 90 93 92 86
35 35 34 29 24 25 25 24 24 25 27 29 30 29 30 31 32 34 38 43 52 60 66 73 84 81 83 85 92 95 92 90
34 32 35 32 30 24 26 25 26 26 28 29 30 30 30 31 32 33 37 42 44 63 70 81 87 81 86 88 93 97 94 93
29 31 32 33 34 28 25 27 27 27 28 31 31 33 33 32 31 32 33 37 44 60 78 79 84 85 86 90 94 97 94 90
28 31 32 37 36 34 26 29 30 29 29 30 35 35 36 33 31 32 33 47 53 60 84 81 89 90 87 90 97 98 95 89
29 30 33 37 41 33 31 26 31 33 33 33 37 40 38 33 28 28 33 50 59 69 80 86 94 91 90 95 99 98 94 85
28 27 32 35 39 39 35 32 33 34 36 37 38 42 42 37 28 25 31 49 60 74 82 87 93 89 91 97 98 98 94 83
32 30 34 33 36 41 39 38 36 35 36 38 40 43 44 42 30 27 32 46 57 70 80 91 95 95 92 92 92 92 94 84
37 42 41 38 34 35 36 33 32 32 34 36 41 47 47 44 32 29 34 45 51 65 84 95 99 97 95 93 88 89 91 86
40 41 51 52 43 41 40 37 33 31 36 37 43 50 49 45 34 29 35 44 59 75 87 98 98 97 94 96 91 94 90 85
45 40 39 45 51 35 40 41 37 35 36 39 45 52 52 45 34 32 38 51 62 79 94 99 97 98 97 96 94 93 92 88
48 45 43 41 45 42 38 40 43 38 38 41 46 52 52 42 33 35 40 51 57 88 99 96 99 97 98 96 96 95 93 88
42 43 43 47 47 45 43 45 49 44 43 44 48 54 53 44 35 38 41 45 57 91 97 99 98 98 97 98 98 96 94 93